Location: Newark
(45.2500°N, 7.5833°E)
Time: 15:27:05
(UTC+00:00)

Tiros 1 despin weight - Pass Details

Date: 04 February 2020
Orbit: 594 x 642 km, 48.2° (Epoch: 22 February)

Event Time Altitude Azimuth Distance (km) Brightness Sun altitude
Rises 05:38:26 0° 193° (SSW) 2,815 ? -12.4°
Reaches altitude 10° 05:41:34 10° 169° (S) 1,922 ? -11.9°
Maximum altitude 05:44:02 15° 135° (SE) 1,636 ? -11.5°
Drops below altitude 10° 05:46:31 10° 101° (E) 1,938 ? -11.0°
Sets 05:49:41 0° 78° (ENE) 2,853 ? -10.5°
